Hourly Data Report for October 13, 2016

All times are specified in Local Standard Time (LST). Add 1 hour to adjust for Daylight Saving Time where and when it is observed.

GRISE FIORD CLIMATE
NUNAVUT

76°25'22.040" N
82°54'08.020" W
44.50 m
2402351
71971
NGC

Download Data

Hourly Data (October 2016)
Hourly Data Report for October 13, 2016
Temp Definition
°C
Dew Point Temp Definition
°C
Rel Hum Definition
%
Wind Dir Definition
10's deg

Wind Spd Definition
km/h
Visibility Definition
km
Stn Press Definition
kPa
Hmdx Definition


Wind Chill Definition


Weather Definition


TIME
00:00 -7.1 -11.6 70 5 21   100.77   -14 LegendNANA
01:00 -7.3 -11.7 70 5 16   100.77   -14 LegendNANA
02:00 -6.2 -11.1 68 7 5   100.83   -9 LegendNANA
03:00 -6.0 -10.4 71 5 8   100.87   -10 LegendNANA
04:00 -6.9 -9.3 83 5 3   100.91   -8 LegendNANA
05:00 -6.7 -7.9 91 4 2   100.94   -8 LegendNANA
06:00 -6.9 -8.4 89 25 1   100.95   -7 LegendNANA
07:00 -7.1 -7.8 95 11 2   100.96   -8 LegendNANA
08:00 -7.1 -7.8 95 13 3   100.96   -9 LegendNANA
09:00 -6.7 -9.7 80 6 8   100.94   -11 LegendNANA
10:00 -6.8 -11.5 69 8 5   100.93   -9 LegendNANA
11:00 -7.6 -11.5 74 12 4   100.93   -10 LegendNANA
12:00 -9.5 -13.4 73 6 6   100.93   -13 LegendNANA
13:00 -8.4 -12.3 73 7 9   100.93   -13 LegendNANA
14:00 -7.5 -11.6 72 4 16   100.91   -14 LegendNANA
15:00 -6.8 -10.7 73 4 12   100.92   -12 LegendNANA
16:00 -6.7 -10.5 74 22 3   100.91   -8 LegendNANA
17:00 -7.2 -11.2 73 26 2   100.90   -8 LegendNANA
18:00 -7.7 -11.1 77 12 8   100.88   -12 LegendNANA
19:00 -6.9 -11.4 71 5 13   100.85   -12 LegendNANA
20:00 -7.0 -10.9 74 8 4   100.85   -9 LegendNANA
21:00 -7.0 -11.6 70 5 21   100.83   -14 LegendNANA
22:00 -7.0 -11.3 71 6 22   100.82   -14 LegendNANA
23:00 -9.2 -13.0 74 5 28   100.80   -18 LegendNANA

Notes on Data Quality.

Legend

  • E = Estimated
  • M = Missing
  • NA = Not Available
  • ‡ = Partner data that is not subject to review by the National Climate Archives
Date modified: